Regional Weather Roundup
Issued by NWS Spokane, WA

Home | Current Version | Previous Version | Text Only | Print | Product List | Glossary On
Versions: 1 2 3 4 5 6 7 8 9 10 11 12 13 14 15 16 17 18 19 20 21 22 23 24 25 26 27 28 29 30 31 32 33 34 35 36 37 38 39 40 41 42 43 44 45 46 47 48 49 50
419
NZUS01 KOTX 220857
RWROTX

Eastern Washington/Northern Idaho Roundup
National Weather Service, Spokane WA
200 AM PDT SUN OCT 22 2017

Note: "fair" indicated few or no clouds below 12,000 feet with no
significant weather and/or obstructions to visibility.

...Northeast Washington and Northern Idaho Panhandle...

CITY           SKY/WX    TMP DP  RH WIND       PRES   REMARKS
Spokane Intl   LGT RAIN  48  47  96 SW24G33   29.74R
Spokane Downto LGT RAIN  50  47  89 SW16G23   29.75R
Deer Park      RAIN      49  48  97 SW13G18   29.74R FOG

...Southeast Washington and southern Idaho Panhandle...

CITY           SKY/WX    TMP DP  RH WIND       PRES   REMARKS
Walla Walla    CLOUDY    64  45  49 S30G37    29.82R
Pullman/Moscow LGT RAIN  49  42  77 S16       29.85R
Lowell           N/A     43  41  93 N5        29.99F

...Columbia Basin...

CITY           SKY/WX    TMP DP  RH WIND       PRES   REMARKS
Ephrata        LGT RAIN  47  43  86 S12       29.73S FOG
Moses Lake     LGT RAIN  48  46  93 S8        29.76R
Pasco            N/A    N/A N/A N/A MISG        N/A
Hermiston      CLOUDY    66  48  52 SW20G32   29.81R
Pendleton      CLOUDY    61  44  53 S26G36    29.84R

...East Slopes Cascades...

CITY           SKY/WX    TMP DP  RH WIND       PRES   REMARKS
The Dalles     LGT RAIN  49  48  97 CALM      29.82R FOG
Yakima         HVY RAIN  47  45  93 W6        29.78R FOG
Ellensburg     LGT RAIN  42  40  92 CALM      29.77R FOG
Omak           CLOUDY    40  40 100 S6        29.71S
Sunnyside      CLOUDY    61  49  65 S14G20    29.77R

...Southern British Columbia...

CITY           SKY/WX    TMP DP  RH WIND       PRES   REMARKS

...Western Montana...

CITY           SKY/WX    TMP DP  RH WIND       PRES   REMARKS
Missoula       CLOUDY    45  39  79 SE7       29.88F

...Neighboring Cities...

CITY           SKY/WX    TMP DP  RH WIND       PRES   REMARKS
Seattle        CLOUDY    55  53  93 S16G25    29.74R
Portland       RAIN      60  58  92 SW17G26   29.89R FOG
Boise          CLOUDY    47  39  74 SE15      30.20R
Great Falls    PTCLDY    48  29  47 SW22G32   29.73F



USA.gov is the U.S. government's official web portal to all federal, state and local government web resources and services.